www.pogodaiklimat.ru

АРХИВ ПОГОДЫ в Атлантик-Сити

Время (UTC), дата Ветер
(напр.,м/с)
 
Видим.   Явления Облачность Т
(С)
Тd
(С)
f
(%)
Тe
(С)
Тes
(С)
Комфортность

P
(гПа)

Po
(гПа)
Тmin
(С)
Tmax
(С)
R
(мм)
SD
(см)
20:54 25.05 Ю  16 км    2/0 2250 м
[средняя] 
+18.3  +11.7  65  +18  +20    1020.9  1018.8         
21:54 25.05 Ю  16 км    ясно  +17.2  +11.7  70  +17  +18    1020.9  1018.8         
22:54 25.05 Ю  5
{8} 
16 км    ясно  +16.7  +12.2  75  +16  +16    1020.7  1018.5  +16.7  +20.6     
23:54 25.05 Ю  16 км    ясно  +16.7  +13.3  80  +16  +16    1019.4  1017.5         
00:54 26.05 Ю  4
{10} 
16 км    5/0 2700 м
[средняя] 
+16.7  +13.9  84  +16  +16    1019.2  1017.1         
01:54 26.05 Ю  16 км    10/0 3300 м
[средняя] 
+17.2  +14.4  84  +17  +17    1018.9  1016.8         
02:54 26.05 Ю  16 км    10/0 3000 м
[средняя] 
+17.8  +15.0  84  +17  +17    1017.8  1015.8         
03:54 26.05 Ю  16 км    5/0 3000 м
[средняя] 
+18.3  +16.1  87  +18  +18    1017.2  1015.1         
04:54 26.05 ЮЗ  6 км  дождь, дымка  10/8 630 м
[средняя] 
+18.9  +17.8  93  +20  +20    1017.4  1015.4  +16.7  +18.9  2.5   
05:23 26.05 Ю  16 км    10/8 240 м
[средняя] 
+18.9  +18.9  100  +21  +21  комфорт    1013.8         
05:54 26.05 ЮЗ  16 км    8/8 180 м
[средняя] 
+18.9  +18.9  100  +20  +20    1015.3  1013.1         
06:11 26.05 ЮЗ  16 км    8/5 150 м
[средняя] 
+18.9  +18.9  100  +20  +20      1013.1         
06:54 26.05 ЮЗ  16 км    5/2 180 м
[средняя] 
+19.4  +18.9  97  +21  +21  комфорт  1015.0  1013.1         
07:37 26.05 Ю  16 км    8/8 480 м  +18.9  +18.9  100  +21  +21  комфорт    1012.7         
07:54 26.05 ЮЗ  16 км    10/10 420 м  +18.9  +18.9  100  +21  +21  комфорт  1014.9  1012.7      0.8   
08:51 26.05 ЮЗ  14 км    5/5 360 м  +19.0  +19.0  100  +21  +21  комфорт    1013.1         
08:54 26.05 ЮЗ  14 км    2/2 360 м  +18.9  +18.9  100  +21  +21  комфорт  1015.3  1013.1         
09:07 26.05 З  13 км    2/2 270 м  +18.9  +18.9  100  +21  +21  комфорт    1013.4         
09:50 26.05 З  14 км    8/8 240 м  +19.0  +19.0  100  +21  +21  комфорт    1013.1         
09:54 26.05 З  14 км    8/8 210 м  +20.0  +19.4  96  +24  +24  комфорт  1015.2  1013.1         
10:42 26.05 З  11 км    10/10 120 м  +20.6  +20.0  96  +25  +25  комфорт    1013.8         
10:54 26.05 З  11 км    10/10 150 м  +20.6  +20.6  100  +25  +25  комфорт  1015.6  1013.4  +18.3  +20.6  0.8   
11:54 26.05 З  16 км    8/8 210 м  +22.2  +20.6  91  +29  +29  очень
душно 
1015.5  1013.4         
12:16 26.05 З  16 км    5/5 300 м  +23.9  +21.1  84  +30  +32  очень
душно 
  1013.8         
12:54 26.05 З  16 км    2/2 390 м  +25.0  +21.1  79  +32  +35  очень
душно 
1015.4  1013.4         
13:54 26.05 З  16 км    ясно  +26.7  +20.6  69  +33  +38  очень
душно 
1015.3  1013.1         
14:54 26.05 СЗ  16 км    ясно  +28.3  +20.0  61  +35  +43  очень
душно 
1014.9  1012.7         
15:54 26.05 СЗ  16 км    ясно  +29.4  +20.0  57  +36  +43  очень
душно 
1014.5  1012.4         
16:54 26.05 СЗ  16 км    ясно  +30.0  +17.8  48  +34  +46  очень
душно 
1013.9  1011.7  +20.6  +30.6     
17:54 26.05 З  16 км    ясно  +30.6  +16.1  42  +34  +46  очень
душно 
1013.4  1011.4         
18:54 26.05 З  16 км    ясно  +30.0  +16.7  45  +34  +42  очень
душно 
1012.6  1010.7         
19:54 26.05 З  16 км    ясно  +30.6  +18.3  48  +35  +38  очень
душно 
1012.2  1010.0         
20:54 26.05 З  16 км    ясно  +29.4  +19.4  55  +35  +39  очень
душно 
1012.3  1010.4         
21:54 26.05 З  16 км    ясно  +28.3  +20.0  61  +35  +37  очень
душно 
1012.2  1010.0         
22:54 26.05 ЮЗ  16 км    ясно  +27.8  +20.6  65  +35  +35  очень
душно 
1012.0  1010.0  +27.8  +31.1     
23:54 26.05 З  16 км    ясно  +26.1  +21.1  74  +33  +33  очень
душно 
1012.1  1010.0         
00:54 27.05 З  16 км    ясно  +25.0  +20.6  77  +31  +31  очень
душно 
1012.4  1010.4         
01:54 27.05 З  16 км    8/0 3300 м
[средняя] 
+23.9  +20.6  82  +30  +30  очень
душно 
1012.5  1010.4         
02:54 27.05 З  16 км    5/2 1500 м
[средняя] 
+23.9  +19.4  76  +29  +29  душно  1012.9  1011.0         
03:54 27.05 ЮЗ  16 км    ясно  +22.8  +20.6  87  +30  +30  очень
душно 
1012.2  1010.0         
04:54 27.05 З  16 км    ясно  +21.1  +20.0  93  +26  +26  душно  1011.5  1009.4  +21.1  +27.8     
05:54 27.05 СЗ  16 км    ясно  +20.6  +20.6  100  +26  +26  душно  1011.7  1009.7         
06:54 27.05 СЗ  16 км    ясно  +20.6  +20.0  96  +25  +25  комфорт  1012.2  1010.0         
07:54 27.05 СЗ  16 км    10/0 2850 м
[средняя] 
+20.0  +19.4  96  +24  +24  комфорт  1012.7  1010.7         
08:54 27.05   16 км    10/0 2100 м
[средняя] 
+20.6  +18.3  87  +24  +24  комфорт  1013.0  1011.0         
09:54 27.05 СЗ  16 км    10/0 2250 м
[средняя] 
+21.1  +18.3  84  +25  +25  комфорт  1012.9  1010.7         
10:54 27.05 СЗ  16 км    ясно  +22.8  +17.8  73  +28  +29  душно  1013.2  1011.0  +20.0  +22.8     
11:54 27.05 С  16 км    ясно  +23.3  +15.0  60  +27  +30  душно  1013.8  1011.7         

 

Местоположение метеостанции Atlantic City International Airport: широта 39.4520 долгота -74.5670 высота над уровнем моря 17 м.

В архиве по умолчанию представлена погода в Атлантик-Сити за последние 1-2 суток. Обновление информации о фактической погоде в базе происходит ежечасно! Архивные данные за месяц целиком и за предыдущие месяцы Вы можете получить, выбрав интересующий диапазон дат из раскрывающегося списка и нажав кнопку "Ввод!".

Внимание! Архив погоды МЕТАР в базе сайта в настоящее время начинается c 1 января 2011 г. Нет смысла пытаться выбрать более раннюю дату.

Внимание! Время в таблицах - всемирное. Для получения местного времени необходимо прибавить поправку, которая в Атлантик-Сити равна -5 ч.

Ветер - указаны скорость ветра в м/с и направление, откуда дует ветер: С - северный, СВ - северо-восточный, В - восточный, ЮВ - юго-восточный, Ю - южный, ЮЗ - юго-западный, З - западный, СЗ - северо-западный.
Видимость - горизонтальная дальность видимости в метрах или километрах. При видимости от 1 до 10 км при отсутствии осадков обычно наблюдается дымка, при ухудшении видимости до 1 км и менее - туман. В сухую погоду видимость может ухудшаться дымом, пылью или мглою.
Атмосферные явления - указаны явления, наблюдавшиеся в указанный момент времени.
Облачность - указаны через наклонную черту верхняя и нижняя облачность в баллах и высота нижней границы облаков в метрах. Внимание: облачность, как и прочие метеорологические величины в США измеряются автоматическими метеостанциями. Указанные значения в баллах носят условный характер и показывают процент времени, в течение которого, в среднем, лазерный луч высотомера отражался от облаков обратно.
T - Температура воздуха - температура, измеренная на высоте 2 м над землей.
Td - Температура точки росы - температура, при понижении до которой содержащийся в воздухе водяной пар достигнет насыщения.
f - Относительная влажность воздуха - влажноcть воздуха, измеренная на высоте 2 м над землей.
Te - Эффективная температура - температура, которую ощущает одетый по сезону человек в тени. Характеристика душности погоды. При расчете учитывается влияние влажности воздуха и скорости ветра на теплоощущения человека.
Tes - Эффективная температура на солнце - температура, которую ощущает человек, с поправкой на солнечный нагрев. Характеристика знойности погоды. Зависит от высоты солнца над горизонтом, облачности и скорости ветра. Ночью, в пасмурную погоду, а также при ветре 12 м/с и более поправка равна нулю.
P - Атмосферное давление - приведенное к уровню моря атмосферное давление.
Po - Атмосферное давление - измеренное на уровне метеостанции атмосферное давление.
Tmin - Минимальная температура - минимум температуры воздуха на высоте 2 м над землей.
Tmax - Максимальная температура - максимум температуры воздуха на высоте 2 м над землей.
R - Количество осадков - Количество выпавших осадков за 3 или 6 часов, мм.
SD - Снежный покров - Высота снежного покрова, см.